• MPC Preparation (Info)

  • MPEC 2010-V146: 2010 VB140

    The following Minor Planet Electronic Circular may be linked-to from your own Web pages, but must not otherwise be redistributed electronically.

    A form allowing access to any MPEC is at the bottom of this page.


    Read MPEC 2010-V145 Read MPEC 2010-V147


    M.P.E.C. 2010-V146                               Issued 2010 Nov. 15, 13:30 UT
    
         The Minor Planet Electronic Circulars contain information on unusual
             minor planets and routine data on comets.  They are published
       on behalf of Commission 20 of the International Astronomical Union by the
              Minor Planet Center, Smithsonian Astrophysical Observatory,
                              Cambridge, MA 02138, U.S.A.
    
                 Prepared using the Tamkin Foundation Computer Network
    
                                  MPC@CFA.HARVARD.EDU
           URL https://www.minorplanetcenter.org/iau/mpc.html  ISSN 1523-6714
    
                                      2010 VB140
    
    Observations:
         K10VE0B* C2010 11 15.34968 05 18 26.23 +05 24 33.8          20.1 V EV146703
         K10VE0B  C2010 11 15.35544 05 18 26.86 +05 24 48.9          20.1 V EV146703
         K10VE0B  C2010 11 15.36123 05 18 27.36 +05 25 05.5          20.1 V EV146703
         K10VE0B  C2010 11 15.36704 05 18 28.08 +05 25 21.1                 EV146703
         K10VE0B  C2010 11 15.40228 05 18 31.75 +05 26 49.5          20.1 V EV146703
         K10VE0B  C2010 11 15.40757 05 18 32.29 +05 27 03.0          19.6 V EV146703
         K10VE0B  C2010 11 15.41824 05 18 33.48 +05 27 30.0          19.3 V EV146703
    
    Observer details:
    703 Catalina Sky Survey.  Observer R. E. Hill.  Measurers J. D. Ahern,
        E. C. Beshore, A. Boattini, G. J. Garradd, A. R. Gibbs, A. D. Grauer,
        R. E. Hill, R. A. Kowalski, S. M. Larson, R. H. McNaught.  0.68-m Schmidt
        + CCD.
    
    Orbital elements:
    2010 VB140                                               Earth MOID = 0.0041 AU
    Epoch 2010 Oct. 31.0 TT = JDT 2455500.5                 MPC
    M   4.18277              (2000.0)            P               Q
    n   0.28506721     Peri.  158.61614     +0.95991222     -0.27828793
    a   2.2865000      Node   217.59314     +0.24854089     +0.90034613
    e   0.5823612      Incl.    3.15085     +0.12959921     +0.33456340
    P   3.46           H   24.9           G   0.15
    From 7 observations 2010 Nov. 15.  E-assumed.
    
    Ephemeris:
    2010 VB140               a,e,i = 2.29, 0.58, 3                   q = 0.9549
    Date    TT    R. A. (2000) Decl.     Delta      r     Elong.  Phase     V
    2010 11 10    04 42.49   -03 10.8    0.0230   1.010   147.5    31.8    18.1
    2010 11 11    04 55.06   -00 14.3    0.0284   1.014   147.4    31.7    18.5
    2010 11 12    05 03.51   +01 46.0    0.0339   1.019   147.4    31.5    18.9
    2010 11 13    05 09.52   +03 12.9    0.0396   1.023   147.6    31.2    19.3
    2010 11 14    05 13.99   +04 18.7    0.0452   1.028   148.0    30.7    19.6
    2010 11 15    05 17.40   +05 10.3    0.0509   1.033   148.4    30.1    19.8
    2010 11 16    05 20.07   +05 51.9    0.0567   1.038   149.0    29.4    20.0
    2010 11 17    05 22.18   +06 26.4    0.0624   1.043   149.6    28.7    20.2
    2010 11 18    05 23.88   +06 55.5    0.0682   1.048   150.3    27.9    20.4
    2010 11 19    05 25.25   +07 20.5    0.0741   1.054   151.0    27.1    20.6
    2010 11 20    05 26.36   +07 42.4    0.0799   1.059   151.7    26.2    20.7
    
    Timothy B. Spahr             (C) Copyright 2010 MPC           M.P.E.C. 2010-V146
    

    Read MPEC 2010-V145 Read MPEC 2010-V147


    MPEC number:

    Enter an MPEC number in one of the following forms:

    • 1997-B01 (the full form)
    • J97B01 (the packed version of the full form)
    • B01 (the abbreviated form)